Погода в Экажево

Россия / Республика Ингушетия     43°12′30″N   44°49′08″E
В апреле 2022 года жителям России запретили посещать сайт meteo.paraplan.net по решению Генеральной прокуратуры. Аудитория сайта уменьшилась в 10 раз. Владельцы сайта не видят смысла в поддержке погодного сервера в таких условиях. Сайт будет закрыт в октябре.
темп.,
°C
ветер,
м/с
пор.,
м/с
влажн.,
%
обл.,
%
осадки,
мм/ч
давл.,
гПа
погр.,
м
25 сентября, вс
вс2500:00+10ююв1180100 0.0 101815
03:00+11ссз1171100 0.0 101912
06:00+10ссв2582100 0.0 1021252
09:00+11св2378100 0.0 1023557
12:00+14в446141 0.0 10211029
15:00+16св325221 0.0 10211257
18:00+12св236477 0.0 102237
21:00+13вюв1163100 0.0 102333
26 сентября, пн
пн2600:00+10вюв22742 0.0 102313
03:00+9вюв11792 0.0 102311
06:00+8вюв11820 0.0 102310
09:00+15в45540 0.0 1022786
12:00+18в55430 0.0 10201128
15:00+20в44390 0.0 10181158
18:00+15в22545 0.0 101813
21:00+13в2371100 0.0 101843
27 сентября, вт
вт2700:00+11вюв11821 0.0 101710
03:00+10ю11700 0.0 101610
06:00+10ю11672 0.0 101510
09:00+17всв12485 0.0 1014326
12:00+22всв333397 0.0 1012835
15:00+23в4433100 0.0 1011902
18:00+17в2251100 0.0 101116
21:00+15в115695 0.0 101011
28 сентября, ср
ср2800:00+14ююз1162100 0.0 101010
03:00+13ю115630 0.0 100910
06:00+12ююз2249100 0.0 100911
09:00+20зюз113151 0.0 1008199
12:00+26ссз222190 0.0 1007838
15:00+27с322673 0.0 10071357
18:00+19св225393 0.0 100914
21:00+17ююв116180 0.0 101011
29 сентября, чт
чт2900:00+16ююз2255100 0.0 101012
03:00+16юз1155100 0.0 101113
06:00+15юз2257100 0.0 101214
09:00+20з23445 0.0 1013559
12:00+24с223713 0.0 10121582
15:00+25ссв323231 0.0 10132134
18:00+20с1147100 0.1 101516
21:00+19вюв125277 0.1 101722